Regional Weather Roundup
Issued by NWS

Home | Current Version | Previous Version | Graphics & Text | Print | Product List | Glossary On
Versions: 1 2 3 4 5 6 7 8 9 10 11 12 13 14 15 16 17 18 19 20 21 22 23 24 25 26 27 28 29 30 31 32 33 34 35 36 37 38 39 40 41 42 43 44 45 46 47 48 49 50
000
ASUS43 KOAX 281202
RWRNE

WEATHER ROUNDUP FOR NEBRASKA
NATIONAL WEATHER SERVICE OMAHA NE
700 AM CDT FRI AUG 28 2015

NOTES: SATELLITE DATA IS BEING USED TO AUGMENT CLOUD COVER ABOVE
       12000 FEET.
       "FAIR" INDICATES FEW OR NO CLOUDS BELOW 12,000 FEET WITH NO
       SIGNIFICANT WEATHER AND/OR OBSTRUCTIONS TO VISIBILITY.

  * THESE STATIONS DO NOT REPORT WEATHER SUCH AS RAIN...SNOW OR FOG.

NEZ001>004-019>022-054>056-281300-
NEBRASKA PANHANDLE

CITY           SKY/WX    TMP DP  RH WIND       PRES   REMARKS
SCOTTSBLUFF    CLEAR     57  53  86 W8        30.08R
6HR MIN TEMP:  56; 6HR MAX TEMP:  62;

ALLIANCE       CLEAR     52  50  93 W9        30.04R
6HR MIN TEMP:  50; 6HR MAX TEMP:  55;

CHADRON        CLEAR     57  50  77 SW6       30.03R
6HR MIN TEMP:  52; 6HR MAX TEMP:  58;

KIMBALL        CLEAR     58  50  75 W12       30.12R
SIDNEY         CLEAR     60  53  77 NW13      30.09R
6HR MIN TEMP:  57; 6HR MAX TEMP:  60;

$$

NEZ057>060-069>072-079>082-281300-
SOUTHWEST NEBRASKA

CITY           SKY/WX    TMP DP  RH WIND       PRES   REMARKS
NORTH PLATTE   MOCLDY    63  61  93 W9        29.95S
6HR MIN TEMP:  61; 6HR MAX TEMP:  68;

IMPERIAL       CLEAR     59  55  87 NW10      30.00R
6HR MIN TEMP:  59; 6HR MAX TEMP:  66;

MCCOOK         CLEAR     63  60  90 W12       29.95R
6HR MIN TEMP:  63; 6HR MAX TEMP:  71;

$$

NEZ005>010-023>029-035>040-094-281300-
NORTH CENTRAL NEBRASKA

CITY           SKY/WX    TMP DP  RH WIND       PRES   REMARKS
AINSWORTH      CLOUDY    67  65  95 N12       29.92R
BROKEN BOW     CLOUDY    68  65  90 NW12      29.91R
6HR MIN TEMP:  68; 6HR MAX TEMP:  71;

O`NEILL        CLOUDY    66  65  99 N10       29.88R FOG
ORD            CLOUDY    67  64  90 N12       29.86R
6HR MIN TEMP:  64; 6HR MAX TEMP:  68;

$$

NEZ041-046>049-061>064-073>077-083>087-281300-
SOUTH CENTRAL NEBRASKA

CITY           SKY/WX    TMP DP  RH WIND       PRES   REMARKS
GRAND ISLAND   CLOUDY    66  65  96 NW10      29.86R
6HR MIN TEMP:  66; 6HR MAX TEMP:  75;

AURORA         CLOUDY    67  67 100 W8        29.84R FOG
HASTINGS       CLOUDY    69  67  93 NW9       29.86R
6HR MIN TEMP:  67; 6HR MAX TEMP:  74;

KEARNEY *      CLOUDY    70  64  83 NW10      29.87R
YORK           MOCLDY    68  68 100 SW9       29.82S
$$

NEZ011>018-030>034-042>045-281300-
NORTHEAST NEBRASKA

CITY           SKY/WX    TMP DP  RH WIND       PRES   REMARKS
NORFOLK        CLOUDY    68  67  96 NW3       29.81R
6HR MIN TEMP:  67; 6HR MAX TEMP:  69; 6HR PCP: TRACE;

ALBION         CLOUDY    67  65  92 NW10      29.84R FOG
BLAIR          CLOUDY    68  65  90 S12G17    29.82R
COLUMBUS *     CLOUDY    70  64  83 SW6       29.80R
FREMONT        CLOUDY    70  67  90 SE9       29.81S
TEKAMAH        CLOUDY    68  67  96 SE8       29.80S
6HR MIN TEMP:  67; 6HR MAX TEMP:  68; 6HR PCP:  1.35;

$$

NEZ050>053-065>068-078-088>093-281300-
SOUTHEAST NEBRASKA

CITY           SKY/WX    TMP DP  RH WIND       PRES   REMARKS
LINCOLN        CLEAR     72  66  81 S14       29.81R
6HR MIN TEMP:  69; 6HR MAX TEMP:  72; 6HR PCP:  0.77;

OMAHA EPPLEY   CLOUDY    69  67  93 SE10      29.83R
6HR MIN TEMP:  68; 6HR MAX TEMP:  70; 6HR PCP:  0.85;

BEATRICE       PTCLDY    72  65  77 S17G26    29.84R
FALLS CITY     CLOUDY    67  64  90 SE9       29.88F
6HR MIN TEMP:  67; 6HR MAX TEMP:  71; 6HR PCP: TRACE;

NEBRASKA CITY  CLOUDY    68  66  93 S18G24    29.85R
$$

NEZ044-045-051>053-067-281300-
OMAHA AREA

CITY           SKY/WX    TMP DP  RH WIND       PRES   REMARKS
OMAHA EPPLEY   CLOUDY    69  67  93 SE10      29.83R
6HR MIN TEMP:  68; 6HR MAX TEMP:  70; 6HR PCP:  0.85;

BLAIR          CLOUDY    68  65  90 S12G17    29.82R
FREMONT        CLOUDY    70  67  90 SE9       29.81S
WAHOO          CLOUDY    69  67  94 SE6       29.81R
$$




USA.gov is the U.S. government's official web portal to all federal, state and local government web resources and services.